Weather History for Colby, KS

Change the Weather History Date:

Wednesday, August 14, 2013

  Actual Average (KGLD) Record (KGLD)
Temperature  
Mean Temperature 71 °F 74 °F  
Max Temperature 80 °F 88 °F 104 °F (1937)
Min Temperature 62 °F 61 °F 47 °F (1920)
Degree Days  
Heating Degree Days 0 0  
Month to date heating degree days 0  
Since 1 June heating degree days 41  
Since 1 July heating degree days 4  
Cooling Degree Days 6 9  
Month to date cooling degree days 141  
Year to date cooling degree days 695  
Since 1 June cooling degree days 654  
Growing Degree Days 21 (Base 50)    
Moisture  
Dew Point 63 °F    
Average Humidity 85    
Maximum Humidity 100    
Minimum Humidity 51    
Precipitation  
Precipitation 0.00 in 0.10 in 1.88 in (1917)
Month to date precipitation 1.44  
Year to date precipitation 14.64  
Snow  
Snow 0.00 in 0.00 in - ()
Month to date snowfall 0.0  
Since 1 June snowfall 0.0  
Since 1 July snowfall 0.0  
Snow Depth -    
Sea Level Pressure  
Sea Level Pressure 30.16 in    
Wind  
Wind Speed 9 mph (South)    
Max Wind Speed 13 mph    
Max Gust Speed 21 mph    
Visibility 10 miles    
Events      
T = Trace of Precipitation, MM = Missing Value Source: NWS Daily Summary

Daily Weather History Graph

Daily Weather History Graph

Search for Another Location

Airport:

Trip Planner

Search our weather history database for the weather conditions in past years. The results will help you decide how hot, cold, wet, or windy it might be!

Date:

Astronomy

Aug. 14, 2013 Rise Set
Actual Time 6:56 AM CDT 8:40 PM CDT
Civil Twilight 6:27 AM CDT 9:09 PM CDT
Nautical Twilight 5:52 AM CDT 9:44 PM CDT
Astronomical Twilight 5:15 AM CDT 10:21 PM CDT
Moon 2:54 PM CDT (8/14) 12:20 AM CDT (8/14)
Length of Visible Light 14h 42m
Length of Day
13h 44m
First Quarter, 53% of the Moon is Illuminated
Aug 14
First Quarter
Aug 20
Full
Aug 28
Last Quarter
Sep 5
New
Sep 12
First Quarter

Hourly Weather History & Observations

Time (CDT) Temp. Heat Index Dew Point Humidity Pressure Visibility Wind Dir Wind Speed Gust Speed Precip Events Conditions
12:15 AM 64.4 °F - 64.4 °F 100% 30.21 in 10.0 mi SE 10.4 mph - N/A   Mostly Cloudy
12:35 AM 64.4 °F - 64.4 °F 100% 30.21 in 10.0 mi SSE 8.1 mph - N/A   Scattered Clouds
12:55 AM 64.4 °F - 64.4 °F 100% 30.22 in 10.0 mi SSE 8.1 mph - N/A   Clear
1:15 AM 64.4 °F - 64.4 °F 100% 30.22 in 10.0 mi SE 9.2 mph - N/A   Clear
1:35 AM 62.6 °F - 62.6 °F 100% 30.22 in 10.0 mi SE 11.5 mph - N/A   Mostly Cloudy
1:55 AM 62.6 °F - 62.6 °F 100% 30.23 in 10.0 mi SSE 6.9 mph - N/A   Mostly Cloudy
2:15 AM 62.6 °F - 62.6 °F 100% 30.22 in 10.0 mi South 6.9 mph - N/A   Overcast
2:35 AM 62.6 °F - 62.6 °F 100% 30.21 in 10.0 mi SSE 6.9 mph - N/A   Overcast
2:55 AM 62.6 °F - 62.6 °F 100% 30.21 in 10.0 mi South 8.1 mph - N/A   Overcast
3:15 AM 62.6 °F - 62.6 °F 100% 30.21 in 10.0 mi South 4.6 mph - N/A   Overcast
3:35 AM 62.6 °F - 62.6 °F 100% 30.21 in 10.0 mi South 6.9 mph - N/A   Overcast
3:55 AM 62.6 °F - 62.6 °F 100% 30.21 in 10.0 mi South 9.2 mph - N/A   Mostly Cloudy
4:15 AM 62.6 °F - 62.6 °F 100% 30.20 in 10.0 mi South 8.1 mph - N/A   Mostly Cloudy
4:35 AM 62.6 °F - 62.6 °F 100% 30.18 in 10.0 mi South 8.1 mph - N/A   Scattered Clouds
4:55 AM 62.6 °F - 62.6 °F 100% 30.18 in 10.0 mi South 8.1 mph - N/A   Scattered Clouds
5:15 AM 62.6 °F - 62.6 °F 100% 30.17 in 10.0 mi South 8.1 mph - N/A   Scattered Clouds
5:35 AM 62.6 °F - 62.6 °F 100% 30.17 in 10.0 mi South 9.2 mph - N/A   Mostly Cloudy
5:55 AM 62.6 °F - 62.6 °F 100% 30.17 in 10.0 mi South 8.1 mph - N/A   Mostly Cloudy
6:15 AM 62.6 °F - 62.6 °F 100% 30.19 in 10.0 mi SSW 6.9 mph - N/A   Overcast
6:35 AM 62.6 °F - 62.6 °F 100% 30.18 in 10.0 mi South 8.1 mph - N/A   Overcast
6:55 AM 62.6 °F - 62.6 °F 100% 30.18 in 10.0 mi SSW 6.9 mph - N/A   Scattered Clouds
7:15 AM 62.6 °F - 62.6 °F 100% 30.20 in 10.0 mi WSW 4.6 mph - N/A   Mostly Cloudy
7:35 AM 62.6 °F - 62.6 °F 100% 30.20 in 10.0 mi Calm Calm - N/A   Overcast
7:55 AM 62.6 °F - 62.6 °F 100% 30.19 in 10.0 mi SE 5.8 mph - N/A   Overcast
8:15 AM 62.6 °F - 62.6 °F 100% 30.18 in 10.0 mi SSE 6.9 mph - N/A   Overcast
8:35 AM 64.4 °F - 62.6 °F 94% 30.18 in 10.0 mi SSE 10.4 mph - N/A   Overcast
8:55 AM 64.4 °F - 62.6 °F 94% 30.18 in 10.0 mi SE 3.5 mph - N/A   Overcast
9:15 AM 64.4 °F - 62.6 °F 94% 30.19 in 10.0 mi SE 6.9 mph - N/A   Overcast
9:35 AM 64.4 °F - 62.6 °F 94% 30.19 in 10.0 mi SSE 10.4 mph - N/A   Overcast
9:55 AM 64.4 °F - 62.6 °F 94% 30.19 in 10.0 mi SSE 12.7 mph - N/A   Overcast
10:15 AM 66.2 °F - 62.6 °F 88% 30.19 in 10.0 mi South 8.1 mph - N/A   Overcast
10:35 AM 66.2 °F - 62.6 °F 88% 30.19 in 10.0 mi SSE 10.4 mph - N/A   Overcast
10:55 AM 66.2 °F - 62.6 °F 88% 30.20 in 10.0 mi SSE 10.4 mph - N/A   Overcast
11:15 AM 68.0 °F - 62.6 °F 83% 30.19 in 10.0 mi SE 12.7 mph - N/A   Overcast
11:35 AM 68.0 °F - 62.6 °F 83% 30.20 in 10.0 mi SSE 8.1 mph - N/A   Overcast
11:55 AM 66.2 °F - 62.6 °F 88% 30.20 in 10.0 mi SSE 10.4 mph - N/A   Overcast
12:15 PM 68.0 °F - 62.6 °F 83% 30.20 in 10.0 mi South 9.2 mph - N/A   Overcast
12:35 PM 69.8 °F - 62.6 °F 78% 30.19 in 10.0 mi South 10.4 mph - N/A   Overcast
12:55 PM 73.4 °F - 62.6 °F 69% 30.18 in 10.0 mi SSW 11.5 mph - N/A   Mostly Cloudy
1:15 PM 73.4 °F - 62.6 °F 69% 30.18 in 10.0 mi SW 8.1 mph - N/A   Mostly Cloudy
1:35 PM 75.2 °F - 62.6 °F 65% 30.17 in 10.0 mi SSW 10.4 mph - N/A   Mostly Cloudy
1:55 PM 77.0 °F - 62.6 °F 61% 30.15 in 10.0 mi SSW 8.1 mph - N/A   Mostly Cloudy
2:55 PM 78.8 °F - 60.8 °F 54% 30.14 in 10.0 mi SSE 4.6 mph - N/A   Overcast
3:15 PM 78.8 °F - 60.8 °F 54% 30.14 in 10.0 mi South 3.5 mph - N/A   Overcast
3:35 PM 80.6 °F 81.5 °F 60.8 °F 51% 30.12 in 10.0 mi Calm Calm - N/A   Mostly Cloudy
3:55 PM 80.6 °F 81.5 °F 60.8 °F 51% 30.11 in 10.0 mi SW 8.1 mph - N/A   Mostly Cloudy
4:15 PM 77.0 °F - 64.4 °F 65% 30.12 in 10.0 mi South 10.4 mph 16.1 mph N/A   Overcast
4:35 PM 78.8 °F - 64.4 °F 61% 30.10 in 10.0 mi South 10.4 mph - N/A   Mostly Cloudy
4:55 PM 80.6 °F 82.3 °F 64.4 °F 58% 30.10 in 10.0 mi SSE 9.2 mph - N/A   Scattered Clouds
5:15 PM 78.8 °F - 62.6 °F 57% 30.09 in 10.0 mi South 9.2 mph - N/A   Scattered Clouds
5:35 PM 80.6 °F 81.8 °F 62.6 °F 54% 30.09 in 10.0 mi South 8.1 mph - N/A   Scattered Clouds
5:55 PM 78.8 °F - 62.6 °F 57% 30.09 in 10.0 mi SSE 11.5 mph - N/A   Scattered Clouds
6:15 PM 78.8 °F - 62.6 °F 57% 30.09 in 10.0 mi South 10.4 mph - N/A   Scattered Clouds
6:35 PM 78.8 °F - 62.6 °F 57% 30.09 in 10.0 mi South 10.4 mph - N/A   Mostly Cloudy
6:55 PM 77.0 °F - 62.6 °F 61% 30.08 in 10.0 mi South 11.5 mph 17.3 mph N/A   Scattered Clouds
7:15 PM 75.2 °F - 66.2 °F 73% 30.08 in 10.0 mi South 12.7 mph 20.7 mph N/A   Scattered Clouds
7:35 PM 73.4 °F - 66.2 °F 78% 30.07 in 10.0 mi South 11.5 mph - N/A   Clear
7:55 PM 73.4 °F - 66.2 °F 78% 30.08 in 10.0 mi South 10.4 mph - N/A   Clear
8:15 PM 71.6 °F - 64.4 °F 78% 30.09 in 10.0 mi South 12.7 mph - N/A   Clear
8:35 PM 71.6 °F - 64.4 °F 78% 30.09 in 10.0 mi SSE 9.2 mph - N/A   Clear
8:55 PM 69.8 °F - 66.2 °F 88% 30.10 in 10.0 mi South 9.2 mph 16.1 mph N/A   Clear
9:15 PM 69.8 °F - 66.2 °F 88% 30.10 in 10.0 mi South 9.2 mph - N/A   Clear
9:35 PM 69.8 °F - 66.2 °F 88% 30.11 in 10.0 mi South 8.1 mph - N/A   Clear
9:55 PM 68.0 °F - 66.2 °F 94% 30.12 in 10.0 mi South 8.1 mph - N/A   Clear
10:15 PM 68.0 °F - 66.2 °F 94% 30.14 in 10.0 mi South 8.1 mph - N/A   Clear
10:35 PM 68.0 °F - 64.4 °F 88% 30.14 in 10.0 mi South 6.9 mph - N/A   Clear
10:55 PM 68.0 °F - 64.4 °F 88% 30.14 in 10.0 mi South 9.2 mph - N/A   Clear
11:15 PM 66.2 °F - 64.4 °F 94% 30.13 in 10.0 mi South 11.5 mph - N/A   Clear
11:35 PM 66.2 °F - 64.4 °F 94% 30.14 in 10.0 mi SSW 8.1 mph - N/A   Clear
11:55 PM 64.4 °F - 64.4 °F 100% 30.15 in 7.0 mi SSW 6.9 mph - N/A   Clear